Flag for Australia Weather past 2 weeks in Darwin, Northern Territory, Australia

Now
86 °F

Sunny.


Feels Like: 86 °F
Forecast: 66 / 89 °F
Wind: 15 mph from North

Location: Darwin Airport

Current Time: Aug 20, 2014 at 3:13:54 PM

Latest Report: Aug 20, 2014 at 2:30 PM


Visibility: 10 mi

Pressure: 29.92 "Hg

Humidity: 43%

Dew point: 61 °F

Location of DarwinLocation

Historic Weather in Darwin — Graph

°F

Darwin temperature yesterday

Maximum temperature yesterday: 84 °F (at 1:30 PM)
Minimum temperature yesterday: 61 °F (at 5:00 AM)
Average temperature yesterday: 72 °F

Past Weeks' High & Low Weather Summary

 TemperatureHumidityPressure
High91 °F (Aug 7, 2:30 PM)94% (Aug 8, 7:00 AM)30.07 "Hg (Aug 8, 7:00 AM)
Low61 °F (Aug 17, 11:30 PM)6% (Aug 5, 2:00 PM)29.86 "Hg (Aug 7, 4:00 PM)
Average75 °F47%29.97 "Hg
* Reported Aug 5 1:30 PM — Aug 20 2:00 PM, Darwin, Weather by CustomWeather, © 2014

Note: Actual official high and low records may vary slightly from our data, if they occured in-between our weather recording intervals... More about our weather records

Advertising

Darwin weather history for previous 24 hours

 ConditionsComfort  
Time TempWeatherWind HumidityBarometerVisibility
2:00 PM
Aug 20
86 °FSunny.15 mph33%29.92 "Hg10 mi
1:30 PM84 °FSunny.9 mph37%29.92 "Hg10 mi
12:30 PM84 °FSunny.10 mph37%29.95 "Hg10 mi
12:00 PM82 °FSunny.10 mph45%29.98 "Hg10 mi
11:30 AM82 °FSunny.12 mph42%29.98 "Hg10 mi
11:00 AM79 °FSunny.13 mph48%30.01 "Hg10 mi
10:30 AM79 °FSunny.13 mph45%30.01 "Hg10 mi
10:00 AM75 °FSunny.10 mph44%30.01 "Hg10 mi
9:30 AM73 °FSunny.13 mph38%30.01 "Hg10 mi
9:00 AM72 °FSunny.15 mph33%30.01 "Hg10 mi
8:30 AM68 °FSunny.14 mph38%30.01 "Hg10 mi
8:00 AM68 °FSunny.10 mph40%30.01 "Hg10 mi
7:30 AM66 °FSunny.8 mph56%29.98 "Hg10 mi
7:00 AM66 °FClear.8 mph68%29.98 "Hg10 mi
6:00 AM64 °FClear.8 mph78%29.95 "Hg10 mi
5:30 AM61 °FClear.7 mph94%29.95 "Hg10 mi
5:00 AM64 °FClear.6 mph94%29.95 "Hg10 mi
4:30 AM63 °FClear.6 mph88%29.95 "Hg10 mi
4:00 AM63 °FClear.5 mph94%29.95 "Hg10 mi
3:30 AM64 °FClear.7 mph88%29.95 "Hg10 mi
3:00 AM66 °FClear.7 mph88%29.95 "Hg10 mi
2:30 AM68 °FClear.7 mph83%29.95 "Hg10 mi
2:00 AM68 °FClear.8 mph88%29.95 "Hg10 mi
1:30 AM68 °FClear.8 mph83%29.98 "Hg10 mi
1:00 AM68 °FClear.8 mph78%29.98 "Hg10 mi
12:30 AM68 °FClear.6 mph78%29.98 "Hg10 mi
12:00 AM66 °FClear.No wind73%29.98 "Hg10 mi
11:30 PM
Aug 19
64 °FClear.5 mph78%29.98 "Hg10 mi
11:00 PM68 °FClear.7 mph69%29.98 "Hg10 mi
10:30 PM70 °FClear.7 mph64%29.98 "Hg10 mi
10:00 PM66 °FClear.1 mph68%29.98 "Hg10 mi
9:30 PM68 °FClear.5 mph69%29.95 "Hg10 mi
9:00 PM70 °FClear.6 mph64%29.95 "Hg10 mi
8:30 PM73 °FClear.5 mph53%29.95 "Hg10 mi
8:00 PM73 °FClear.7 mph53%29.95 "Hg10 mi
7:30 PM73 °FClear.8 mph57%29.92 "Hg10 mi
7:00 PM75 °FSunny.7 mph50%29.92 "Hg10 mi
6:30 PM77 °FSunny.8 mph44%29.89 "Hg10 mi
6:00 PM79 °FSunny.10 mph42%29.89 "Hg10 mi
5:30 PM81 °FSunny.10 mph37%29.89 "Hg10 mi
5:00 PM82 °FSunny.13 mph37%29.89 "Hg10 mi
4:30 PM82 °FSunny.13 mph37%29.92 "Hg10 mi
4:00 PM82 °FSunny.12 mph35%29.92 "Hg10 mi
3:30 PM82 °FSunny.13 mph37%29.92 "Hg10 mi
3:00 PM84 °FSunny.14 mph33%29.92 "Hg10 mi
Weather by CustomWeather, © 2014

See weather overviewHow to use our weather pages